Temp
5 5 5 5 5 4 4 4 4 3 3 2 2 2 2 2 1 1 1 0 0 1 -0 -1 -1 -2 -1 -2 -2 -2 -1 -1 -1 -1 -0 -0 -0 0 -0 -0 -0 -0 -0 0 0 1 1
5 5 5 4 4 4 4 4 4 3 3 2 2 2 2 2 1 1 1 0 0 0 -0 -0 -1 -1 -1 -1 -1 -1 -1 -1 -0 -0 -0 -0 -0 -0 0 0 -0 -0 0 0 1 1 1
5 4 4 4 4 4 4 3 3 3 3 2 2 2 2 2 1 1 1 1 0 0 0 -0 -1 -1 -1 -1 -1 -1 -1 -1 -0 -0 0 0 -0 -1 -1 -1 -1 -1 -1 -0 0 0 0
4 4 4 4 4 4 4 3 3 3 3 3 2 2 2 2 2 1 1 1 0 -0 0 0 -0 -1 -1 -1 -1 -1 -1 -1 -0 -0 -0 -1 -1 -1 -1 -1 -1 -1 -0 -0 -0 0 0
4 4 4 4 4 4 4 3 3 3 3 3 2 2 2 2 1 1 1 1 1 0 -0 -0 0 -0 -1 -1 -1 -1 -1 -1 -1 -0 -1 -2 -2 -1 -2 -2 -1 -1 -1 -0 -0 -0 0
4 4 3 3 3 3 3 3 3 3 3 2 2 2 2 2 1 1 1 1 1 0 0 -0 -0 -0 -1 -1 -1 -1 -1 -1 -1 -1 -1 -2 -2 -2 -2 -2 -2 -2 -1 -1 -0 0 0
4 3 3 3 3 3 3 3 3 2 2 2 2 2 2 2 1 1 1 1 1 1 0 -0 -0 -0 -0 -1 -1 -1 -2 -1 -1 -1 -1 -1 -2 -2 -2 -1 -1 -1 -1 -1 -0 -0 0
4 3 3 3 3 2 2 2 2 2 2 2 2 2 2 2 1 1 1 1 1 0 -0 -0 -1 -1 -1 -1 -1 -2 -1 -2 -1 -1 -1 -1 -2 -1 -1 -2 -2 -1 -1 -1 -1 -0 -1
3 3 3 3 3 2 2 2 2 2 2 2 2 1 1 1 1 1 0 0 0 0 -0 -1 -1 -1 -1 -2 -1 -2 -2 -2 -1 -2 -1 -1 -0 -1 -2 -2 -2 -2 -2 -1 -1 -1 -1
3 3 3 2 2 2 2 2 1 1 1 1 1 1 1 1 1 0 0 0 -0 -0 -1 -1 -1 -1 -1 -2 -2 -2 -2 -3 -2 -2 -2 -3 -1 -2 -2 -2 -2 -2 -1 -1 -1 -1 -2
2 2 2 2 2 2 1 1 1 1 1 1 1 0 0 0 -0 0 -0 -0 -1 -1 -4 -2 -2 -2 -2 -2 -2 -2 -2 -3 -3 -2 -3 -3 -2 -2 -2 -2 -2 -2 -1 -1 -1 -1 -1
2 1 1 1 1 1 1 1 1 1 0 0 0 0 -0 -0 -1 -1 -1 -1 -1 -2 -4 -1 -2 -2 -2 -2 -2 -3 -3 -3 -3 -3 -3 -3 -3 -2 -2 -2 -2 -2 -2 -2 -2 -2 -3
1 1 1 0 0 0 0 0 0 -0 -0 -0 -0 -1 -1 -1 -1 -1 -1 -2 -2 -3 -2 -2 -3 -3 -3 -2 -2 -3 -3 -3 -3 -4 -4 -3 -3 -2 -3 -3 -2 -3 -2 -3 -4 -4 -3
0 0 -0 -0 -0 -0 -0 -0 -1 -1 -1 -1 -1 -1 -1 -1 -2 -2 -2 -3 -4 -2 -2 -3 -3 -3 -3 -3 -3 -3 -4 -4 -4 -4 -4 -4 -3 -2 -2 -3 -2 -2 -3 -2 -2 -3 -3
-1 -1 -1 -2 -2 -1 -1 -1 -1 -2 -1 -1 -2 -2 -2 -2 -2 -2 -3 -4 -2 -2 -3 -3 -3 -3 -3 -3 -4 -4 -4 -4 -4 -4 -4 -4 -4 -2 -2 -1 -2 -4 -3 -2 -2 -2 -3
-2 -1 -3 -3 -3 -2 -2 -2 -2 -2 -2 -2 -3 -2 -2 -3 -3 -4 -4 -4 -3 -4 -4 -4 -4 -4 -4 -4 -4 -4 -4 -4 -4 -4 -4 -4 -4 -3 -3 -3 -3 -4 -3 -4 -4 -3 -3
-2 -3 -3 -4 -4 -4 -3 -3 -3 -3 -3 -3 -3 -3 -3 -4 -4 -5 -5 -4 -4 -5 -5 -5 -5 -5 -5 -5 -5 -5 -5 -5 -4 -4 -5 -5 -6 -4 -4 -4 -4 -4 -4 -4 -4 -3 -3
-3 -4 -5 -5 -5 -4 -4 -4 -5 -5 -5 -5 -5 -4 -5 -5 -5 -5 -5 -5 -6 -6 -6 -6 -6 -6 -6 -6 -6 -6 -6 -6 -5 -5 -5 -6 -6 -6 -4 -3 -4 -4 -4 -3 -3 -3 -3
-4 -5 -5 -5 -5 -5 -5 -5 -5 -5 -6 -5 -5 -5 -5 -5 -5 -6 -6 -6 -7 -7 -6 -7 -7 -7 -7 -7 -7 -7 -7 -6 -6 -6 -6 -7 -7 -7 -6 -4 -4 -5 -5 -5 -5 -4 -4
-5 -5 -6 -6 -6 -6 -6 -7 -7 -7 -7 -7 -7 -7 -7 -6 -7 -7 -7 -7 -6 -7 -7 -7 -7 -7 -7 -7 -7 -8 -7 -7 -7 -7 -7 -7 -8 -8 -8 -6 -6 -6 -6 -7 -6 -6 -6
-5 -6 -7 -7 -7 -7 -7 -8 -8 -8 -8 -8 -8 -8 -8 -7 -7 -9 -8 -8 -9 -8 -7 -7 -8 -7 -8 -8 -8 -8 -8 -8 -8 -8 -8 -9 -9 -9 -8 -8 -7 -8 -7 -7 -7 -6 -6
-5 -6 -7 -7 -8 -8 -8 -8 -9 -8 -9 -10 -10 -9 -8 -8 -9 -9 -9 -10 -9 -9 -8 -8 -8 -9 -9 -9 -9 -10 -9 -9 -9 -9 -9 -9 -10 -9 -10 -9 -8 -9 -8 -8 -8 -7 -7
-6 -6 -8 -8 -9 -9 -9 -9 -9 -9 -9 -10 -10 -9 -9 -9 -10 -11 -10 -11 -11 -11 -10 -9 -9 -9 -10 -10 -10 -10 -10 -10 -10 -10 -10 -11 -11 -11 -11 -10 -10 -11 -9 -7 -7 -6 -6
-6 -8 -9 -9 -9 -9 -9 -9 -9 -10 -10 -11 -10 -10 -11 -11 -11 -12 -12 -12 -12 -11 -11 -10 -10 -11 -10 -10 -10 -11 -11 -11 -10 -10 -10 -11 -11 -12 -12 -12 -17 -10 -8 -8 -8 -6 -7
-7 -8 -9 -9 -9 -10 -10 -10 -10 -11 -12 -12 -11 -11 -11 -12 -12 -13 -13 -13 -13 -12 -11 -11 -11 -11 -11 -12 -12 -12 -12 -12 -10 -10 -10 -10 -11 -13 -12 -12 -11 -10 -9 -8 -8 -7 -7
-7 -8 -9 -10 -10 -10 -10 -10 -11 -12 -12 -12 -12 -12 -13 -13 -13 -13 -13 -14 -13 -12 -12 -12 -12 -12 -13 -13 -14 -15 -13 -12 -12 -11 -11 -11 -11 -14 -13 -14 -17 -10 -9 -9 -8 -9 -7
-7 -8 -8 -9 -10 -11 -11 -11 -11 -12 -12 -12 -13 -13 -14 -14 -13 -14 -14 -14 -13 -13 -13 -13 -13 -13 -14 -14 -15 -15 -15 -14 -14 -14 -13 -13 -13 -14 -14 -13 -12 -11 -10 -11 -11 -9 -9
-8 -8 -9 -9 -10 -10 -11 -12 -12 -12 -13 -12 -13 -13 -14 -14 -13 -14 -14 -13 -13 -14 -14 -14 -15 -15 -15 -15 -16 -16 -16 -15 -15 -15 -15 -14 -14 -14 -13 -13 -12 -13 -13 -13 -12 -11 -11
-8 -9 -9 -10 -10 -11 -12 -13 -13 -13 -13 -13 -14 -14 -14 -14 -14 -14 -13 -14 -14 -15 -15 -15 -16 -17 -17 -17 -17 -17 -17 -17 -17 -17 -15 -15 -15 -14 -14 -13 -14 -14 -13 -13 -13 -12 -12
Height
3123 3121 3119 3117 3116 3112 3107 3103 3098 3095 3092 3090 3087 3085 3081 3078 3074 3071 3068 3067 3065 3064 3063 3062 3060 3058 3058 3057 3057 3058 3059 3060 3061 3065 3069 3072 3075 3078 3082 3086 3088 3091 3092 3094 3094 3098 3103
3125 3123 3121 3119 3115 3111 3107 3104 3099 3095 3092 3090 3087 3084 3081 3078 3074 3071 3068 3065 3064 3062 3062 3061 3060 3059 3058 3057 3056 3057 3058 3059 3061 3064 3067 3071 3075 3079 3082 3084 3086 3088 3091 3091 3094 3098 3099
3127 3124 3121 3119 3115 3111 3107 3103 3100 3096 3092 3089 3086 3083 3080 3077 3074 3070 3067 3065 3063 3061 3060 3059 3058 3057 3056 3056 3055 3056 3057 3058 3060 3062 3066 3071 3074 3077 3079 3081 3084 3087 3089 3089 3091 3094 3094
3127 3124 3121 3119 3115 3111 3106 3102 3099 3096 3093 3089 3086 3082 3079 3076 3073 3070 3066 3064 3062 3060 3059 3058 3057 3056 3055 3054 3054 3055 3057 3058 3060 3062 3065 3069 3072 3075 3076 3078 3080 3084 3087 3088 3089 3091 3090
3127 3124 3121 3118 3114 3110 3107 3103 3099 3095 3092 3089 3085 3081 3077 3074 3071 3069 3066 3062 3060 3059 3058 3056 3055 3055 3054 3053 3053 3054 3056 3057 3059 3061 3062 3065 3069 3073 3073 3074 3079 3080 3083 3083 3085 3086 3087
3125 3123 3120 3116 3112 3109 3105 3102 3099 3096 3091 3087 3085 3081 3077 3073 3069 3067 3065 3062 3059 3057 3055 3054 3053 3055 3053 3052 3051 3051 3054 3055 3057 3059 3062 3063 3065 3067 3068 3070 3070 3074 3078 3079 3081 3083 3083
3123 3120 3117 3114 3110 3107 3104 3100 3097 3093 3091 3087 3083 3080 3076 3072 3068 3065 3063 3061 3060 3057 3054 3053 3051 3049 3049 3049 3048 3049 3050 3053 3054 3056 3057 3060 3061 3057 3062 3066 3070 3073 3075 3075 3076 3078 3079
3121 3118 3114 3111 3108 3105 3102 3098 3095 3091 3088 3084 3080 3077 3074 3071 3067 3063 3061 3058 3055 3054 3050 3048 3047 3046 3046 3046 3046 3046 3048 3050 3051 3053 3055 3057 3054 3060 3065 3067 3068 3070 3071 3072 3074 3075 3076
3118 3115 3112 3108 3105 3102 3099 3095 3092 3089 3085 3081 3078 3073 3070 3067 3064 3062 3059 3057 3053 3050 3048 3045 3043 3043 3044 3045 3044 3044 3045 3045 3047 3049 3050 3051 3053 3058 3060 3062 3064 3064 3065 3067 3070 3071 3069
3115 3112 3109 3105 3102 3098 3095 3091 3088 3085 3081 3077 3073 3070 3067 3064 3063 3058 3056 3054 3051 3048 3044 3043 3041 3041 3042 3043 3043 3043 3042 3044 3043 3045 3048 3049 3051 3051 3054 3054 3059 3058 3062 3065 3066 3067 3064
3111 3108 3105 3102 3099 3095 3091 3088 3084 3080 3077 3074 3070 3066 3063 3059 3057 3055 3053 3050 3048 3048 3046 3041 3039 3038 3038 3040 3040 3041 3040 3040 3039 3041 3044 3041 3045 3046 3045 3046 3055 3053 3059 3061 3061 3061 3061
3106 3103 3100 3097 3094 3090 3087 3083 3079 3076 3072 3069 3066 3062 3058 3056 3053 3052 3049 3047 3047 3049 3041 3036 3034 3034 3035 3035 3035 3036 3037 3038 3039 3038 3037 3035 3041 3041 3041 3046 3048 3053 3056 3056 3055 3056 3053
3102 3099 3096 3092 3089 3085 3081 3077 3073 3070 3067 3064 3061 3058 3054 3052 3050 3047 3045 3045 3045 3040 3036 3034 3032 3032 3032 3033 3032 3032 3032 3032 3033 3034 3031 3033 3031 3035 3039 3041 3043 3046 3051 3048 3048 3047 3034
3098 3095 3091 3087 3084 3080 3076 3072 3069 3065 3063 3060 3056 3053 3050 3047 3045 3043 3041 3042 3040 3032 3031 3029 3030 3030 3028 3029 3028 3027 3028 3028 3028 3029 3029 3027 3026 3026 3029 3030 3031 3033 3036 3036 3032 3031 3030
3092 3089 3085 3082 3078 3074 3071 3067 3064 3060 3057 3054 3051 3049 3045 3043 3041 3039 3038 3036 3032 3030 3029 3029 3029 3028 3026 3024 3026 3024 3024 3023 3024 3024 3025 3019 3016 3017 3019 3021 3026 3025 3026 3025 3028 3026 3025
3085 3081 3078 3075 3071 3068 3064 3062 3059 3055 3051 3048 3046 3043 3041 3038 3036 3034 3033 3029 3027 3026 3026 3025 3026 3026 3024 3024 3023 3021 3019 3017 3017 3018 3018 3014 3009 3009 3011 3015 3015 3015 3020 3022 3018 3015 3013
3079 3075 3071 3069 3065 3062 3059 3057 3054 3052 3047 3043 3040 3037 3035 3033 3032 3031 3028 3025 3022 3021 3021 3021 3019 3021 3020 3019 3019 3018 3016 3016 3014 3014 3012 3011 3009 3006 3006 3004 3004 3007 3007 3010 3009 3006 3005
3072 3069 3065 3063 3059 3057 3054 3052 3049 3046 3044 3038 3035 3033 3030 3028 3029 3024 3023 3023 3020 3017 3016 3016 3015 3013 3013 3013 3011 3011 3010 3011 3010 3009 3009 3007 3004 3000 3000 2999 2998 2996 2996 2996 2994 2994 2992
3066 3062 3059 3056 3053 3051 3049 3046 3043 3039 3036 3033 3031 3029 3027 3024 3021 3019 3019 3019 3017 3015 3012 3010 3009 3008 3008 3008 3007 3002 3002 3003 3003 3003 3001 3000 2997 2993 2991 2992 2991 2990 2990 2989 2989 2985 2981
3059 3055 3053 3050 3048 3045 3043 3040 3037 3032 3031 3029 3027 3023 3022 3020 3018 3016 3014 3012 3012 3013 3010 3008 3005 3004 3003 3002 3003 2999 2998 2998 2996 2997 2997 2995 2992 2991 2989 2988 2988 2985 2983 2982 2982 2982 2976
3054 3051 3048 3045 3042 3039 3037 3034 3030 3026 3024 3022 3020 3015 3014 3014 3013 3011 3012 3009 3008 3009 3007 3004 3001 3001 3000 2998 2996 2996 2995 2993 2992 2991 2990 2989 2985 2985 2981 2982 2981 2978 2977 2976 2978 2974 2972
3050 3046 3043 3040 3038 3035 3032 3028 3025 3020 3016 3015 3014 3012 3009 3007 3006 3005 3004 3001 3000 3002 3002 2998 2996 2995 2994 2993 2992 2990 2990 2990 2987 2985 2984 2982 2978 2977 2972 2974 2974 2968 2969 2970 2970 2968 2967
3045 3041 3039 3035 3032 3028 3025 3020 3016 3013 3008 3005 3006 3006 3005 3004 3002 3001 3000 2997 2994 2994 2995 2994 2990 2987 2987 2987 2985 2983 2981 2981 2980 2978 2977 2976 2974 2972 2963 2968 2965 2957 2959 2960 2959 2958 2959
3041 3037 3034 3031 3027 3023 3018 3014 3010 3006 3004 3004 3003 3001 2999 2996 2996 2996 2992 2991 2991 2990 2987 2986 2984 2981 2979 2977 2974 2972 2970 2969 2969 2968 2968 2965 2966 2966 2959 2963 2961 2951 2951 2952 2950 2950 2949
3034 3032 3029 3025 3021 3018 3014 3010 3006 3002 3001 3000 2998 2996 2992 2989 2989 2988 2986 2985 2985 2982 2981 2978 2978 2974 2971 2969 2967 2962 2961 2959 2956 2955 2957 2956 2956 2955 2953 2950 2944 2944 2946 2945 2943 2942 2941
3030 3027 3024 3020 3017 3013 3008 3004 3000 2998 2996 2993 2991 2989 2985 2984 2983 2981 2979 2979 2978 2975 2974 2973 2970 2967 2965 2963 2961 2957 2955 2953 2951 2950 2950 2949 2946 2948 2948 2945 2942 2938 2938 2936 2936 2933 2934
3025 3022 3019 3015 3012 3008 3004 2999 2994 2993 2991 2988 2986 2984 2981 2980 2978 2975 2974 2973 2973 2969 2967 2965 2963 2961 2958 2956 2955 2954 2951 2950 2948 2945 2944 2942 2940 2938 2936 2937 2933 2933 2932 2931 2933 2931 2924
3021 3017 3013 3010 3006 3003 3000 2996 2992 2990 2987 2983 2983 2980 2978 2976 2974 2971 2969 2967 2964 2963 2960 2959 2958 2954 2953 2953 2952 2950 2947 2946 2944 2942 2939 2937 2936 2934 2933 2929 2927 2926 2927 2929 2928 2924 2924
3016 3012 3009 3005 3003 2999 2995 2993 2990 2987 2984 2981 2979 2975 2973 2972 2971 2967 2963 2960 2958 2957 2956 2954 2954 2952 2951 2950 2949 2946 2944 2942 2940 2937 2936 2935 2933 2929 2929 2925 2923 2923 2923 2922 2922 2921 2920
Wind_Speed
19 19 18 18 18 19 21 22 21 19 16 13 13 16 17 19 16 15 15 13 10 9 6 5 8 6 9 5 7 7 8 11 15 19 19 20 22 22 23 23 25 32 28 28 29 22 20
19 19 19 19 19 21 21 22 21 20 17 14 12 14 18 19 16 13 15 13 10 9 7 6 7 5 9 8 7 6 7 10 15 19 21 20 21 17 18 17 19 18 23 24 29 29 26
18 18 18 18 18 19 19 20 21 21 19 16 14 14 15 18 17 14 13 12 11 9 9 9 8 8 10 7 7 4 5 10 13 19 19 18 18 21 17 17 16 15 16 16 20 20 22
18 17 17 17 17 17 17 17 19 19 20 20 18 16 15 14 17 16 12 12 10 9 9 10 10 8 10 9 4 6 8 10 14 20 21 21 22 22 21 19 12 16 17 23 21 18 18
17 17 17 17 17 17 18 18 17 18 19 20 20 19 16 14 14 15 13 11 11 9 9 10 11 10 8 5 3 9 12 9 15 20 25 28 27 25 22 19 17 19 18 24 25 18 18
16 17 17 17 17 17 17 17 18 19 19 19 19 19 19 16 13 14 14 12 13 12 11 10 10 7 5 3 5 10 13 11 12 20 26 30 30 30 29 24 24 20 24 22 26 26 27
17 17 18 18 18 18 18 18 18 19 21 20 20 20 19 18 15 13 14 15 13 15 8 10 9 9 5 2 3 9 12 17 14 21 29 31 34 39 35 32 28 22 24 25 27 27 25
19 20 20 20 19 19 20 20 20 20 20 21 20 20 19 18 17 14 13 14 14 13 10 11 11 10 8 5 3 9 14 16 21 20 26 30 38 35 33 30 28 29 28 28 27 25 22
20 21 21 22 22 22 22 22 22 23 23 22 22 21 20 19 17 15 14 14 15 15 14 13 10 10 10 10 8 7 13 16 17 21 25 31 30 34 34 33 32 32 32 30 22 16 20
21 22 23 23 24 24 24 23 23 24 24 24 22 22 21 19 17 15 14 14 14 14 9 5 4 5 7 12 13 10 10 15 19 20 22 28 30 24 36 39 36 37 35 31 31 28 23
22 23 25 25 26 26 25 26 25 24 24 25 24 22 21 18 17 16 15 13 12 10 4 4 4 3 4 8 8 7 11 18 21 20 21 24 20 32 34 35 38 38 31 26 29 31 29
24 24 26 26 26 27 27 27 26 26 25 24 24 23 20 18 17 16 14 12 9 4 6 6 6 6 6 8 12 14 15 17 21 23 26 28 23 20 31 30 28 33 28 22 28 26 13
26 26 27 28 28 28 28 27 26 25 25 24 23 23 21 19 17 15 14 11 5 7 4 7 8 8 7 8 12 15 17 19 22 21 30 31 33 32 24 24 29 30 35 9 8 9 11
28 30 30 30 29 29 29 29 27 27 26 26 24 23 21 19 17 16 13 10 9 6 11 9 9 10 14 13 16 15 18 23 23 27 26 17 14 32 34 40 36 40 38 14 7 6 6
27 37 32 32 31 29 30 29 28 26 28 26 25 23 22 20 18 15 13 13 6 9 12 12 11 15 16 12 16 13 16 24 26 24 27 9 17 25 25 32 44 34 37 44 27 18 3
39 42 30 32 33 30 30 28 27 27 29 29 24 22 21 18 17 14 15 20 14 14 15 16 16 10 12 11 8 9 10 9 17 22 23 21 22 32 34 26 36 44 41 19 27 7 12
37 30 30 35 30 29 30 29 25 27 32 28 22 22 20 17 15 16 18 21 18 18 18 13 14 18 20 20 20 16 12 16 15 17 20 20 16 15 18 23 35 39 37 29 26 21 10
29 29 29 30 28 28 29 26 24 31 35 24 23 20 18 19 18 16 16 15 10 12 16 19 20 20 20 18 18 16 21 21 17 19 25 28 19 24 35 36 26 28 40 51 25 22 31
29 28 27 27 27 27 26 30 37 40 27 21 24 21 20 16 16 13 17 19 21 21 19 20 17 15 15 15 12 12 16 17 20 24 15 15 9 7 4 8 13 20 19 33 26 28 29
26 26 24 24 26 28 32 34 40 26 23 27 27 19 23 21 14 14 17 19 15 14 17 17 18 17 18 21 22 20 24 21 23 27 26 29 19 16 11 17 22 33 30 30 25 11 14
26 24 25 27 31 29 31 35 24 26 30 32 24 29 21 14 15 18 20 20 23 25 24 19 20 19 19 23 22 23 25 23 24 26 29 27 27 29 30 28 31 33 34 35 27 24 21
25 26 28 28 27 32 33 29 28 25 26 27 28 22 20 16 16 21 22 20 21 20 22 21 22 23 23 25 26 27 27 27 28 27 28 29 23 28 31 30 29 34 32 27 28 31 32
26 24 23 26 29 28 31 30 29 29 25 15 14 18 20 20 22 19 23 20 20 20 23 24 24 27 30 30 30 31 32 31 31 31 31 28 26 25 23 27 28 23 21 26 26 28 32
24 23 24 27 26 28 29 28 28 24 18 13 15 18 21 25 27 23 22 21 23 26 31 29 28 28 32 32 33 32 33 34 32 34 35 39 38 32 26 23 5 23 26 26 28 29 29
23 23 22 23 24 27 27 27 25 22 20 19 22 26 30 31 27 21 23 24 23 26 30 31 30 31 30 26 27 21 21 24 27 21 22 31 38 28 17 20 23 19 17 21 21 20 20
23 21 21 22 24 25 25 25 25 24 23 21 24 24 24 24 18 18 21 22 26 26 28 27 23 24 26 26 19 6 6 9 6 8 14 22 25 32 16 6 7 17 23 28 35 35 34
22 22 23 23 24 25 26 25 23 24 24 24 24 22 22 24 17 15 22 24 25 25 26 28 27 20 19 17 14 12 11 15 9 10 13 18 18 27 33 21 14 22 20 15 8 11 17
21 23 22 22 23 26 24 22 21 22 24 23 22 21 20 21 19 12 19 26 27 26 24 20 19 15 9 10 7 9 9 10 12 13 14 15 12 20 18 11 11 10 11 8 13 20 18
22 22 22 22 24 24 21 19 21 23 26 23 20 20 18 19 21 23 26 19 15 19 16 15 16 15 9 10 9 7 13 19 23 14 15 9 9 8 9 11 17 16 16 20 21 22 25
Wind_Direction
25 24 21 18 13 16 14 13 16 13 8 4 0 3 358 353 348 348 351 343 339 325 316 328 341 341 358 318 262 261 199 205 195 200 197 195 197 195 202 208 213 218 218 222 227 221 221
20 20 18 16 13 15 15 11 12 14 10 1 353 354 358 356 354 349 350 346 335 327 304 311 350 341 334 315 265 243 191 195 199 196 196 198 198 191 198 207 212 224 229 231 238 238 240
13 14 14 12 13 13 15 12 10 11 10 2 352 344 350 355 355 348 347 348 335 322 304 298 317 329 333 298 270 246 203 198 196 193 197 197 189 194 179 200 201 218 236 236 232 236 243
1 5 5 4 6 4 8 11 8 9 7 7 0 350 343 344 349 350 339 344 337 317 309 298 290 311 324 317 226 213 197 205 199 191 188 193 191 199 199 208 202 220 228 233 234 235 242
350 352 356 355 356 357 357 0 1 1 3 2 1 358 351 342 342 345 342 336 333 319 302 294 284 285 309 313 226 203 200 199 200 195 190 192 200 203 209 215 206 198 208 227 235 234 240
342 340 342 343 345 345 347 348 348 349 352 353 354 354 353 350 340 335 336 332 323 318 302 289 277 262 261 273 232 199 197 200 199 200 195 198 204 206 213 216 204 201 209 223 231 240 246
337 334 332 333 334 335 335 335 335 337 337 341 344 344 345 347 347 337 329 326 322 314 303 285 277 251 235 250 230 217 199 206 202 202 206 204 208 212 213 215 225 229 234 238 250 251 255
335 332 329 327 326 327 327 327 326 326 327 328 332 334 336 337 340 339 329 321 320 307 295 280 276 269 233 243 237 214 216 209 215 216 211 212 217 220 220 221 223 231 237 240 248 254 259
331 329 328 325 324 324 322 322 321 320 321 322 323 324 327 329 328 330 327 321 316 312 303 284 271 263 249 239 239 235 223 220 221 223 222 224 232 225 225 225 228 232 234 238 242 254 258
326 325 325 323 323 322 320 319 319 319 317 317 318 317 318 319 318 319 320 318 316 314 301 271 241 253 250 249 252 240 238 225 225 225 226 234 231 225 226 232 229 235 236 241 250 254 247
321 323 321 321 321 319 320 320 319 319 317 317 316 315 313 312 310 308 311 314 309 318 332 209 219 236 257 246 243 237 223 228 227 228 220 232 234 231 231 232 233 240 242 241 249 253 248
316 318 316 317 317 316 317 316 317 317 316 315 313 313 310 307 302 300 303 303 298 292 259 215 221 258 255 254 253 245 235 232 236 231 233 242 239 236 244 240 235 239 237 244 244 238 230
311 312 313 314 313 313 312 311 312 313 313 311 311 310 308 304 298 294 291 281 261 215 225 235 236 242 262 275 267 256 251 238 230 227 240 245 243 237 235 240 239 240 231 228 209 205 247
312 312 309 309 309 309 309 309 310 312 313 311 309 308 307 300 293 288 276 258 233 235 224 235 235 256 271 293 279 260 254 251 245 246 254 248 253 245 235 229 225 225 219 215 229 214 213
312 317 305 305 306 308 307 306 308 312 314 310 307 305 305 299 291 278 256 233 254 253 250 251 253 279 284 265 244 257 250 255 258 252 244 256 249 261 254 251 227 228 222 231 249 255 232
317 310 299 304 305 306 305 304 307 309 313 308 304 304 304 299 287 269 249 247 252 257 255 269 287 278 268 266 250 258 255 262 257 257 256 261 262 269 266 249 240 229 237 222 228 220 238
310 302 297 307 305 309 309 308 309 313 313 308 308 308 304 293 280 275 260 266 274 264 267 279 278 282 278 275 274 278 266 269 264 263 275 277 282 277 285 239 235 224 230 229 235 219 233
312 306 304 314 312 310 311 313 315 320 318 306 314 309 303 293 287 279 281 283 269 265 279 285 286 287 278 275 274 262 259 261 262 263 276 282 277 266 267 280 276 241 232 230 221 215 229
311 307 304 309 310 310 309 313 312 312 313 305 314 310 309 289 275 284 289 276 280 277 280 281 283 277 272 263 270 250 261 271 269 267 267 261 243 267 279 256 246 251 264 243 246 245 230
313 310 309 308 307 308 309 312 316 318 304 306 307 308 301 285 278 292 288 297 297 290 292 285 286 283 273 266 261 266 266 267 268 272 275 277 283 270 263 266 283 291 282 291 299 256 289
317 311 305 308 307 312 315 321 325 307 302 308 295 295 283 264 287 290 288 288 289 292 292 292 286 284 283 289 286 277 281 276 270 272 275 277 276 280 278 274 273 276 278 282 273 274 257
318 312 311 314 312 317 320 321 322 323 319 307 298 292 278 264 286 284 277 277 288 288 285 286 284 283 282 285 281 278 273 270 275 276 274 276 276 282 277 279 275 276 275 273 268 268 271
319 318 317 318 318 324 323 322 323 322 321 310 299 285 278 280 287 284 286 286 282 284 287 286 285 283 285 283 281 279 279 275 271 271 272 268 266 272 267 281 285 279 277 275 275 269 261
320 318 320 323 323 325 325 325 327 333 329 303 287 283 290 287 288 282 279 279 281 283 284 285 286 288 290 290 288 286 284 281 275 269 265 264 265 261 265 270 277 268 272 268 263 261 254
319 319 322 322 323 324 325 327 329 327 312 296 287 288 291 290 288 283 285 288 288 286 292 294 292 290 293 293 297 302 293 289 289 281 263 258 256 249 242 233 263 261 255 253 267 271 268
318 320 316 322 324 324 322 324 328 326 319 315 310 305 298 295 296 289 294 295 297 298 297 297 296 299 296 295 294 259 258 280 271 264 265 264 263 240 234 231 218 264 265 261 260 264 263
315 314 315 321 323 322 324 325 329 327 326 323 317 307 301 298 299 296 295 297 299 298 297 296 298 295 296 289 272 261 266 269 271 265 281 276 269 229 230 236 251 253 258 264 231 253 255
309 311 315 318 318 318 320 322 330 337 337 332 322 312 306 304 308 312 302 297 296 297 295 293 298 293 297 278 260 258 259 257 267 274 303 292 261 254 267 253 236 228 268 269 283 279 286
306 310 313 315 316 317 319 324 328 331 333 330 322 315 312 311 303 300 297 300 302 298 300 297 291 291 275 271 264 277 280 285 291 293 289 282 313 301 260 261 286 307 301 299 299 298 287